Weather History for Kars, Turkey

Change the Weather History Date:

Monday, December 24, 2012

  Actual Average Record
Temperature  
Mean Temperature 24 °F -  
Max Temperature 35 °F 24 °F - ()
Min Temperature 8 °F 8 °F - ()
Degree Days  
Heating Degree Days 40    
Moisture  
Dew Point 25 °F    
Average Humidity 84    
Maximum Humidity 100    
Minimum Humidity 63    
Precipitation  
Precipitation 0.03 in 0.03 in - ()
Sea Level Pressure  
Sea Level Pressure 30.00 in    
Wind  
Wind Speed 19 mph ()    
Max Wind Speed 30 mph    
Max Gust Speed -    
Visibility 5.1 miles    
Events Fog , Snow    
T = Trace of Precipitation, MM = Missing Value Source: Averaged Metar Reports

Daily Weather History Graph

Daily Weather History Graph

Search for Another Location

Airport:

Trip Planner

Search our weather history database for the weather conditions in past years. The results will help you decide how hot, cold, wet, or windy it might be!

Date:

Astronomy

Dec. 24, 2012 Rise Set
Actual Time 6:29 AM EET 3:45 PM EET
Civil Twilight 5:58 AM EET 4:16 PM EET
Nautical Twilight 5:23 AM EET 4:50 PM EET
Astronomical Twilight 4:50 AM EET 5:24 PM EET
Moon 12:59 PM EET (12/24) 2:46 AM EET (12/24)
Length of Visible Light 10h 18m
Length of Day
9h 16m
Waxing Gibbous, 86% of the Moon is Illuminated
Dec 24
Waxing Gibbous
Dec 28
Full
Jan 5
Last Quarter
Jan 11
New
Jan 19
First Quarter

Hourly Weather History & Observations

Time (EET) Temp. Windchill Dew Point Humidity Pressure Visibility Wind Dir Wind Speed Gust Speed Precip Events Conditions
12:50 AM 35.6 °F 22.5 °F 28.4 °F 75% 29.98 in 6.2 mi SW 29.9 mph - N/A   Mostly Cloudy
1:50 AM 35.6 °F 22.7 °F 28.4 °F 75% 29.98 in 6.2 mi SW 28.8 mph - N/A   Mostly Cloudy
2:00 AM 35 °F - 27 °F 63%  in 6 mi SW 28.8 mph - -   Mostly Cloudy
2:50 AM 33.8 °F 20.1 °F 28.4 °F 81% 29.98 in 6.2 mi SW 29.9 mph - N/A   Mostly Cloudy
3:50 AM 35.6 °F 22.7 °F 26.6 °F 70% 29.98 in 6.2 mi SW 28.8 mph - N/A   Mostly Cloudy
4:50 AM 35.6 °F 23.7 °F 26.6 °F 70% 29.98 in 6.2 mi SSW 24.2 mph - N/A   Mostly Cloudy
5:50 AM 33.8 °F 22.2 °F 28.4 °F 81% 29.98 in 6.2 mi SW 20.7 mph - N/A   Mostly Cloudy
6:50 AM 33.8 °F 22.2 °F 28.4 °F 81% 29.98 in 6.2 mi SW 20.7 mph - N/A   Mostly Cloudy
7:50 AM 33.8 °F 21.6 °F 28.4 °F 81% 29.98 in 6.2 mi SW 23.0 mph - N/A   Mostly Cloudy
8:00 AM 34 °F - 28 °F 71%  in 6 mi SW 23.0 mph - -   Mostly Cloudy
8:50 AM 33.8 °F 22.2 °F 28.4 °F 81% 29.98 in 6.2 mi SSW 20.7 mph - N/A   Mostly Cloudy
9:50 AM 35.6 °F 25.2 °F 28.4 °F 75% 29.98 in 6.2 mi SW 18.4 mph - N/A   Mostly Cloudy
10:50 AM 35.6 °F 23.4 °F 28.4 °F 75% 29.92 in 6.2 mi SW 25.3 mph - N/A   Mostly Cloudy
11:50 AM 33.8 °F 21.0 °F 30.2 °F 87% 29.92 in 6.2 mi SW 25.3 mph - N/A Snow Light Snow
12:50 PM 33.8 °F 21.6 °F 30.2 °F 87% 29.92 in 3.7 mi SW 23.0 mph - N/A Snow Light Snow
1:50 PM 32.0 °F 19.8 °F 32.0 °F 100% 29.92 in 1.0 mi SW 20.7 mph - N/A Snow Light Snow
2:00 PM 33 °F - 32 °F 94%  in 1 mi SW 20.7 mph - - Snow Light Snow
2:50 PM 32.0 °F 22.5 °F 32.0 °F 100% 29.95 in 0.5 mi WSW 12.7 mph - N/A Fog , Snow Snow
3:50 PM 28.4 °F 24.6 °F 28.4 °F 100% 29.98 in 0.5 mi NNE 3.5 mph - N/A Fog , Snow Snow
4:50 PM 26.6 °F 16.8 °F 26.6 °F 100% 30.01 in 0.5 mi NE 10.4 mph - N/A Fog , Snow Snow
5:50 PM 24.8 °F 13.4 °F 24.8 °F 100% 30.04 in 6.2 mi NE 12.7 mph - N/A   Mostly Cloudy
6:50 PM 24.8 °F 14.0 °F 21.2 °F 86% 30.06 in 6.2 mi NE 11.5 mph - N/A   Mostly Cloudy
7:50 PM 24.8 °F 14.6 °F 21.2 °F 86% 30.06 in 6.2 mi ENE 10.4 mph - N/A   Mostly Cloudy
8:00 PM 24 °F - 21 °F 83%  in 6 mi ENE 10.4 mph - -   Partly Cloudy
8:50 PM 19.4 °F 8.6 °F 15.8 °F 86% 30.09 in 6.2 mi SE 9.2 mph - N/A   Mostly Cloudy
9:50 PM 14.0 °F 6.5 °F 10.4 °F 86% 30.09 in 6.2 mi East 4.6 mph - N/A   Mostly Cloudy
10:50 PM 14.0 °F - 8.6 °F 79% 30.12 in 6.2 mi ESE 2.3 mph - N/A   Mostly Cloudy
11:50 PM 8.6 °F -1.3 °F 5.0 °F 85% 30.12 in 6.2 mi SE 5.8 mph - N/A   Mostly Cloudy